ATLAS 5 CENTAUR R/B, 53962

Orbit data source: Space-Track

ATLAS 5 CENTAUR R/B, 53962 is space debris in GEO originally from a launch on Tue, 04 Oct 2022 UTC launched from the Air Force Eastern Test Range (AFETR). Debris objects in space refer to the collection of defunct objects orbiting the Earth. Examples of debris include non-operational satellites, rocket bodies, and fragments generated from explosions, collisions, or faulty payload assembly.

Loading next visibility...
Identifier
53962, 2022-123C
Orbit
GEO
Country
Flag of USUS
Related business
Flag of USUnited Launch Alliance/Lockheed Martin (US)
Manufacturer
ULA Decatur
Mission
Spacecraft
Bus & Motor
CENTAUR SEC, RL10C-1-1
Mass
~2,020 kg wet, 2,020 kg dry
Launch date (UTC)
2022-10-04 (3 years ago)
Launch vehicle
Unknown
Launch site
Air Force Eastern Test Range (AFETR)
Object type
Payload
Rocket body
Debris
Shape & HBR
Cyl + 1 Nozzle, 5.8 m
Radar Cross Section
32.260 m², Large (>1 m²)

Expand to show TLE details & history
Last TLE update: 1 day ago

TLE from 1 day ago
0 ATLAS 5 CENTAUR R/B
1 53962U 22123C   26062.36485699 -.00000092  00000-0  00000+0 0  9992
2 53962   4.1408 102.3167 0305772 289.3406  67.6364  1.07590342 13412
Epoch: 2026-03-03T08:45Z
TLE epoch observation values (Epoch: 2026-03-03T08:45:23.643Z)
Latitude
0.00001°
Longitude
170.11565°
Altitude
33,423.35 km
Speed
3.181 km/s
True Right ascension
06h 50m 26s
True Declination
0° 00' 00"
Sunlit
Object was in daylight at epoch
Visualization orbit readout
Latitude
Unknown
Longitude
Unknown
Altitude
Unknown
Speed
Unknown
Apparent Right ascension
Unknown
Apparent Declination
Unknown
Sunlit
N/A
Visualization observer readout
Local Sidereal Time
13:09:59
Azimuth
Unknown
Elevation
Unknown
Doppler factor
Unknown
Orbital elements
Apogee altitude
35,083.412 km
Perigee altitude
32,623.086 km
Semi-major axis
40,231.386 km
Eccentricity
0.03058
Inclination
4.1408°
RAAN
102.3167°
Arg. of periapsis
289.3406°
True anomaly
70.92274°
Mean anomaly
67.6364°
Eccentric anomaly
69.27498°
Mean motion
0.26896 °/min
Orbital period
1,338.46 mins
BSTAR
0
Loading maneuver chart data...
Computing Atmospheric mass density...
Loading historical data...
Loading historical data...
Loading historical data...
Loading historical data...
Loading historical data...
Loading historical data...
Loading historical data...
Other satellites on launch #123 in the year 2022 (2022-10-04 UTC)

Documentation

Showing up to 5 results
|